Back to catalog

IUS R/B(2)

AliveGEO
NORAD 26883·ROCKET BODY·🇺🇸 United States

Launched Aug 6, 2001 from Cape Canaveral Space Force Station

Loading…

TLE

FreshSource: Space-Track

Epoch: Sep 12, 2026, 19:39 UTC

1 26883U 01033D   26255.81923066 -.00000166  00000-0  00000-0 0  9993
2 26883  13.0081  16.0867 0006276  11.1435 348.8965  0.99886151 26666

Track IUS R/B(2) in real time with AllMySat

Download on the App Store